Home > Weather > Casper > Past weeks

Flag for USA Past Weather in Casper, Wyoming, USA — Yesterday and Last 2 Weeks

Now
79 °F

Sunny.


Feels Like: 78 °F
Forecast: 47 / 82 °F
Wind: 6 mph from East

Location: Natrona County International Airport

Current Time: Jun 27, 2016 at 2:25:29 PM

Latest Report: Jun 27, 2016 at 1:53 PM


Visibility: 10 mi

Pressure: 30.18 "Hg (25.23 "Hg at 1569m altitude)

Humidity: 27%

Dew Point: 42 °F

Location of CasperLocation

Past Weather in Casper — Graph

°F

Casper Temperature Yesterday

Maximum temperature yesterday: 85 °F (at 3:53 PM)
Minimum temperature yesterday: 40 °F (at 4:53 AM)
Average temperature yesterday: 63 °F

High & Low Weather Summary for the Past Weeks

 TemperatureHumidityPressure
High99 °F (Jun 21, 2:53 PM)97% (Jun 18, 2:53 AM)30.27 "Hg (Jun 18, 2:53 AM)
Low40 °F (Jun 26, 4:53 AM)5% (Jun 25, 5:53 PM)29.59 "Hg (Jun 16, 1:53 AM)
Average68 °F44%29.91 "Hg
* Reported Jun 12 12:53 PM — Jun 27 12:53 PM, Casper, Weather by CustomWeather, © 2016

Note: Actual official high and low records may vary slightly from our data, if they occured in-between our weather recording intervals... More about our weather records

Advertising

Casper Weather History for the Previous 24 Hours

Scroll right to see more
 ConditionsComfort  
Time TempWeatherWind HumidityBarometerVisibility
12:53 PM
Mon, Jun 27
76 °FSunny.5 mph33%30.22 "Hg10 mi
11:53 AM74 °FSunny.7 mph36%30.23 "Hg10 mi
10:53 AM69 °FSunny.3 mph38%30.25 "Hg10 mi
9:53 AM66 °FSunny.7 mph43%30.26 "Hg10 mi
8:53 AM64 °FSunny.7 mph45%30.25 "Hg10 mi
7:53 AM61 °FSunny.6 mph44%30.20 "Hg10 mi
6:53 AM53 °FSunny.No wind61%30.20 "Hg10 mi
5:53 AM46 °FClear.5 mph71%30.19 "Hg10 mi
4:53 AM49 °FClear.3 mph61%30.17 "Hg10 mi
3:53 AM53 °FClear.7 mph52%30.14 "Hg10 mi
2:53 AM53 °FClear.No wind52%30.14 "Hg10 mi
1:53 AM53 °FClear.6 mph52%30.13 "Hg10 mi
12:53 AM50 °FClear.7 mph54%30.13 "Hg10 mi
11:53 PM
Sun, Jun 26
52 °FClear.8 mph55%30.11 "Hg10 mi
10:53 PM55 °FClear.7 mph45%30.10 "Hg10 mi
9:53 PM58 °FClear.No wind38%30.09 "Hg10 mi
8:53 PM63 °FSunny.6 mph28%30.07 "Hg10 mi
7:53 PM78 °FSunny.5 mph18%30.02 "Hg10 mi
6:53 PM84 °FSunny.3 mph8%30.02 "Hg10 mi
5:53 PM85 °FSunny.5 mph9%30.03 "Hg10 mi
4:53 PM85 °FSunny.6 mph10%30.04 "Hg10 mi
3:53 PM85 °FSunny.5 mph10%30.06 "Hg10 mi
2:53 PM82 °FSunny.5 mph12%30.08 "Hg10 mi
Weather by CustomWeather, © 2016

See weather overviewHow to use our weather pages